When you browse on this site, cookies collect data to enhance your experience and personalize the content and advertising you see.
Visit our Privacy Policy to learn more. By continuing to use the site, you agree to this use of cookies and data.
  • In Lithuania
  • List of Countries
  • For 7 days
  • Water Temperature
  • Satellite Maps
  • Weather Map
  • Weather Widgets
  • user-avatar
    Login

    Hourly Weather Sidi Bu-l-Abbas

    Today, 10 December, Monday

    Time Temperature Precipitation Wind Pressure Humidity
    00:00 +12°C° 0 mm 0 mps 728 mmHg 49%
    01:00 +12°C° 0 mm 0 mps 727 mmHg 49%
    02:00 +12°C° 0 mm 0 mps 727 mmHg 49%
    03:00 +11°C° 0 mm 0 mps 727 mmHg 48%
    04:00 +11°C° 0 mm 0 mps 727 mmHg 49%
    05:00 +12°C° 0 mm 1 mps 727 mmHg 49%
    06:00 +11°C° 0 mm 0 mps 727 mmHg 49%
    07:00 +14°C° 0 mm 1 mps 727 mmHg 45%
    08:00 +16°C° 0 mm 1 mps 728 mmHg 41%
    09:00 +19°C° 0 mm 1 mps 728 mmHg 37%
    10:00 +20°C° 0 mm 1 mps 728 mmHg 35%
    11:00 +21°C° 0 mm 1 mps 728 mmHg 32%
    12:00 +20°C° 0 mm 2 mps 728 mmHg 32%
    13:00 +21°C° 0 mm 2 mps 728 mmHg 32%
    14:00 +21°C° 0 mm 2 mps 727 mmHg 32%
    15:00 +21°C° 0 mm 3 mps 727 mmHg 33%
    16:00 +19°C° 0 mm 2 mps 727 mmHg 39%
    17:00 +17°C° 0 mm 2 mps 727 mmHg 45%
    18:00 +16°C° 0 mm 2 mps 726 mmHg 51%
    19:00 +15°C° 0 mm 2 mps 726 mmHg 52%
    20:00 +15°C° 0 mm 1 mps 726 mmHg 54%
    21:00 +14°C° 0 mm 1 mps 726 mmHg 56%
    22:00 +14°C° 0 mm 1 mps 726 mmHg 56%
    23:00 +13°C° 0 mm 1 mps 726 mmHg 56%

    Tomorrow, 11 December, Tuesday

    Time Temperature Precipitation Wind Pressure Humidity
    00:00 +13°C° 0 mm 1 mps 725 mmHg 56%
    01:00 +13°C° 0 mm 1 mps 725 mmHg 56%
    02:00 +12°C° 0 mm 1 mps 725 mmHg 57%
    03:00 +12°C° 0 mm 1 mps 725 mmHg 57%
    04:00 +12°C° 0 mm 1 mps 725 mmHg 58%
    05:00 +12°C° 0 mm 1 mps 724 mmHg 59%
    06:00 +11°C° 0 mm 1 mps 724 mmHg 60%
    07:00 +13°C° 0 mm 1 mps 725 mmHg 54%
    08:00 +15°C° 0 mm 1 mps 725 mmHg 48%
    09:00 +18°C° 0 mm 1 mps 725 mmHg 42%
    10:00 +19°C° 0 mm 1 mps 725 mmHg 39%
    11:00 +20°C° 0 mm 1 mps 725 mmHg 37%
    12:00 +20°C° 0 mm 2 mps 725 mmHg 34%
    13:00 +20°C° 0 mm 2 mps 725 mmHg 36%
    14:00 +20°C° 0 mm 2 mps 724 mmHg 38%
    15:00 +20°C° 0 mm 3 mps 724 mmHg 40%
    16:00 +18°C° 0 mm 2 mps 724 mmHg 48%
    17:00 +16°C° 0 mm 2 mps 724 mmHg 56%
    18:00 +15°C° 0 mm 1 mps 724 mmHg 64%
    19:00 +14°C° 0 mm 1 mps 724 mmHg 66%
    20:00 +14°C° 0 mm 1 mps 724 mmHg 69%
    21:00 +13°C° 0 mm 1 mps 724 mmHg 72%
    22:00 +13°C° 0 mm 1 mps 724 mmHg 73%
    23:00 +13°C° 0 mm 1 mps 724 mmHg 74%

    Day after tomorrow, 12 December, Wednesday

    Time Temperature Precipitation Wind Pressure Humidity
    00:00 +12°C° 0 mm 1 mps 724 mmHg 75%
    01:00 +12°C° 0 mm 1 mps 724 mmHg 75%
    02:00 +12°C° 0 mm 1 mps 723 mmHg 75%
    03:00 +11°C° 0 mm 1 mps 723 mmHg 75%
    04:00 +11°C° 0 mm 1 mps 723 mmHg 75%
    05:00 +11°C° 0 mm 1 mps 723 mmHg 75%
    06:00 +11°C° 0 mm 1 mps 723 mmHg 75%
    07:00 +12°C° 0 mm 1 mps 724 mmHg 68%
    08:00 +14°C° 0 mm 1 mps 724 mmHg 61%
    09:00 +15°C° 0 mm 2 mps 725 mmHg 55%
    10:00 +16°C° 0 mm 2 mps 724 mmHg 50%
    11:00 +17°C° 0 mm 2 mps 724 mmHg 46%
    12:00 +18°C° 0 mm 2 mps 724 mmHg 42%
    13:00 +18°C° 0 mm 2 mps 724 mmHg 43%
    14:00 +18°C° 0 mm 3 mps 723 mmHg 44%
    15:00 +18°C° 0 mm 3 mps 723 mmHg 45%
    16:00 +17°C° 0 mm 2 mps 723 mmHg 54%
    17:00 +15°C° 0 mm 2 mps 722 mmHg 62%
    18:00 +14°C° 0 mm 1 mps 722 mmHg 70%
    19:00 +14°C° 0 mm 1 mps 722 mmHg 70%
    20:00 +13°C° 0 mm 1 mps 722 mmHg 69%
    21:00 +13°C° 0 mm 1 mps 722 mmHg 69%
    22:00 +13°C° 0 mm 2 mps 722 mmHg 70%
    23:00 +12°C° 0 mm 2 mps 721 mmHg 70%

    13 December, Thursday

    Time Temperature Precipitation Wind Pressure Humidity
    00:00 +12°C° 0 mm 2 mps 721 mmHg 70%
    01:00 +12°C° 0 mm 2 mps 721 mmHg 71%
    02:00 +10°C° 0 mm 2 mps 720 mmHg 72%
    03:00 +10°C° 0 mm 2 mps 720 mmHg 73%
    04:00 +10°C° 0 mm 3 mps 720 mmHg 71%
    05:00 +10°C° 0 mm 3 mps 719 mmHg 69%
    06:00 +10°C° 0 mm 3 mps 719 mmHg 67%
    07:00 +11°C° 0 mm 4 mps 719 mmHg 63%
    08:00 +12°C° 0 mm 4 mps 719 mmHg 60%
    09:00 +13°C° 0 mm 5 mps 720 mmHg 56%
    10:00 +14°C° 0 mm 5 mps 719 mmHg 52%
    11:00 +15°C° 0 mm 6 mps 718 mmHg 49%
    12:00 +15°C° 0 mm 6 mps 718 mmHg 45%
    13:00 +16°C° 0.2 mm 7 mps 717 mmHg 45%
    14:00 +16°C° 0.2 mm 9 mps 716 mmHg 44%
    15:00 +16°C° 0.2 mm 11 mps 716 mmHg 44%
    16:00 +14°C° 1.5 mm 12 mps 716 mmHg 51%
    17:00 +12°C° 1.5 mm 14 mps 716 mmHg 58%
    18:00 +9°C° 1.5 mm 16 mps 716 mmHg 66%
    19:00 +9°C° 0.3 mm 16 mps 717 mmHg 65%
    20:00 +8°C° 0.3 mm 15 mps 717 mmHg 64%
    21:00 +6°C° 0.3 mm 15 mps 718 mmHg 64%
    22:00 +6°C° 0.7 mm 14 mps 718 mmHg 65%
    23:00 +6°C° 0.7 mm 14 mps 718 mmHg 67%

    14 December, Friday

    Time Temperature Precipitation Wind Pressure Humidity
    00:00 +6°C° 0.7 mm 14 mps 718 mmHg 68%
    01:00 +6°C° 0.9 mm 14 mps 718 mmHg 70%
    02:00 +6°C° 0.9 mm 14 mps 718 mmHg 71%
    03:00 +5°C° 0.9 mm 13 mps 718 mmHg 73%
    04:00 +5°C° 0.7 mm 13 mps 719 mmHg 72%
    05:00 +5°C° 0.7 mm 12 mps 719 mmHg 71%
    06:00 +5°C° 0.7 mm 12 mps 719 mmHg 71%
    07:00 +7°C° 0.4 mm 12 mps 720 mmHg 69%
    08:00 +7°C° 0.4 mm 12 mps 721 mmHg 68%
    09:00 +8°C° 0.4 mm 12 mps 721 mmHg 66%
    10:00 +8°C° 0.1 mm 12 mps 722 mmHg 64%
    11:00 +9°C° 0.1 mm 13 mps 722 mmHg 62%
    12:00 +9°C° 0.1 mm 13 mps 722 mmHg 59%
    13:00 +9°C° 0.1 mm 12 mps 723 mmHg 60%
    14:00 +9°C° 0.1 mm 11 mps 723 mmHg 61%
    15:00 +9°C° 0.1 mm 10 mps 723 mmHg 62%
    16:00 +8°C° 0 mm 9 mps 724 mmHg 65%
    17:00 +9°C° 0 mm 8 mps 724 mmHg 68%
    18:00 +9°C° 0 mm 6 mps 725 mmHg 71%
    19:00 +8°C° 0 mm 6 mps 726 mmHg 73%
    20:00 +8°C° 0 mm 5 mps 726 mmHg 75%
    21:00 +8°C° 0 mm 5 mps 727 mmHg 76%
    22:00 +8°C° 0 mm 4 mps 727 mmHg 77%
    23:00 +8°C° 0 mm 4 mps 727 mmHg 78%

    15 December, Saturday

    Time Temperature Precipitation Wind Pressure Humidity
    00:00 +8°C° 0 mm 4 mps 727 mmHg 79%
    01:00 +7°C° 0 mm 4 mps 727 mmHg 80%
    02:00 +8°C° 0 mm 3 mps 727 mmHg 82%
    03:00 +8°C° 0 mm 3 mps 727 mmHg 83%
    04:00 +8°C° 0 mm 3 mps 727 mmHg 83%
    05:00 +8°C° 0 mm 3 mps 727 mmHg 82%
    06:00 +8°C° 0 mm 3 mps 727 mmHg 82%
    07:00 +9°C° 0 mm 3 mps 728 mmHg 77%
    08:00 +9°C° 0 mm 3 mps 728 mmHg 72%
    09:00 +10°C° 0 mm 3 mps 729 mmHg 67%
    10:00 +11°C° 0 mm 3 mps 729 mmHg 60%
    11:00 +13°C° 0 mm 2 mps 729 mmHg 54%
    12:00 +14°C° 0 mm 2 mps 729 mmHg 47%
    13:00 +14°C° 0 mm 2 mps 728 mmHg 45%
    14:00 +15°C° 0 mm 2 mps 728 mmHg 42%
    15:00 +15°C° 0 mm 2 mps 728 mmHg 40%
    16:00 +14°C° 0 mm 1 mps 728 mmHg 46%
    17:00 +12°C° 0 mm 1 mps 728 mmHg 53%
    18:00 +10°C° 0 mm 0 mps 728 mmHg 59%
    19:00 +10°C° 0 mm 0 mps 728 mmHg 58%
    20:00 +11°C° 0 mm 1 mps 728 mmHg 57%
    21:00 +10°C° 0 mm 1 mps 728 mmHg 56%
    22:00 +10°C° 0 mm 1 mps 728 mmHg 54%
    23:00 +10°C° 0 mm 1 mps 728 mmHg 53%
    Show more